CW9321 Weather Reports


Display with metric or nautical units.
time (UTC)temp
F
wind
direction
speed
MPH
gust
MPH
rain 1hr
in
rain 24hr
in
rain mn
in
humidity
%
barometer
mb
20221210060011 22 121 4.0 6.0 0.00 0.00 0.00 78 1012.2
20221210055511 22 129 3.0 6.0 0.00 0.00 0.00 78 1011.6
20221210055010 22 78 2.0 7.0 0.00 0.00 0.00 78 1011.4
20221210054510 22 50 4.0 7.0 0.00 0.00 0.00 78 1011.4
20221210054010 23 68 7.0 7.0 0.00 0.00 0.00 79 1011.6
20221210053511 23 309 3.0 5.0 0.00 0.00 0.00 79 1011.6
20221210053010 23 272 4.0 5.0 0.00 0.00 0.00 78 1011.6
20221210052511 23 278 3.0 5.0 0.00 0.00 0.00 77 1011.5
20221210052010 23 309 3.0 5.0 0.00 0.00 0.00 77 1011.4
20221210051511 23 304 4.0 7.0 0.00 0.00 0.00 77 1011.3
20221210050510 24 294 5.0 11.0 0.00 0.00 0.00 77 1011.2
20221210045510 24 278 6.0 10.0 0.00 0.00 0.00 77 1011.0
20221210045011 24 283 7.0 10.0 0.00 0.00 0.00 78 1011.1
20221210044510 24 284 8.0 9.0 0.00 0.00 0.00 78 1011.0
20221210042510 24 292 6.0 11.0 0.00 0.00 0.00 79 1011.0
20221210042010 24 292 8.0 11.0 0.00 0.00 0.00 79 1010.9
20221210041010 24 307 10.0 14.0 0.00 0.00 0.00 78 1010.8
20221210040510 24 295 10.0 14.0 0.00 0.00 0.00 78 1010.8
20221210040010 24 280 11.0 14.0 0.00 0.00 0.00 77 1010.8
20221210035510 24 289 10.0 14.0 0.00 0.00 0.00 77 1010.5
20221210034510 25 294 12.0 12.0 0.00 0.00 0.00 77 1010.4
20221210034010 25 284 6.0 12.0 0.00 0.00 0.00 77 1010.3
20221210033009 25 275 6.0 11.0 0.00 0.00 0.00 76 1010.4
20221210032509 25 279 5.0 9.0 0.00 0.00 0.00 75 1010.3
20221210032009 25 271 5.0 10.0 0.00 0.00 0.00 75 1010.2
20221210031509 25 285 5.0 10.0 0.00 0.00 0.00 74 1010.3
20221210031009 26 273 6.0 9.0 0.00 0.00 0.00 74 1010.6
20221210030040 26 268 7.0 9.0 0.00 0.00 0.00 73 1010.4
20221210025509 26 285 7.0 10.0 0.00 0.00 0.00 73 1010.5
20221210025009 27 282 7.0 11.0 0.00 0.00 0.00 73 1010.5
20221210024509 27 261 6.0 11.0 0.00 0.00 0.00 72 1010.5
20221210024010 27 250 6.0 11.0 0.00 0.00 0.00 73 1010.5
20221210023509 27 261 6.0 13.0 0.00 0.00 0.00 73 1010.4
20221210023009 27 244 10.0 13.0 0.00 0.00 0.00 73 1010.3
20221210022509 27 249 10.0 12.0 0.00 0.00 0.00 73 1010.2
20221210022009 27 265 7.0 13.0 0.00 0.00 0.00 73 1010.2
20221210020509 27 269 7.0 13.0 0.00 0.00 0.00 72 1010.0
20221210020009 28 278 9.0 13.0 0.00 0.00 0.00 72 1010.2
20221210015509 28 271 6.0 13.0 0.00 0.00 0.00 72 1010.3
20221210015009 28 292 7.0 13.0 0.00 0.00 0.00 72 1010.3
20221210014508 28 278 13.0 13.0 0.00 0.00 0.00 72 1010.1
20221210014008 28 320 6.0 13.0 0.00 0.00 0.00 73 1010.1
20221210013510 28 302 10.0 11.0 0.00 0.00 0.00 72 1010.1
20221210012508 28 286 6.0 10.0 0.00 0.00 0.00 73 1009.9
20221210012008 28 315 4.0 10.0 0.00 0.00 0.00 73 1009.8
20221210011509 28 323 9.0 14.0 0.00 0.00 0.00 73 1009.8
20221210010508 28 290 5.0 16.0 0.00 0.00 0.00 73 1009.6
20221210010038 28 292 10.0 15.0 0.00 0.00 0.00 72 1009.5
20221210004008 28 302 5.0 10.0 0.00 0.00 0.00 67 1009.1
20221210003508 29 281 6.0 10.0 0.00 0.00 0.00 65 1009.1
20221210003008 29 292 4.0 10.0 0.00 0.00 0.00 64 1008.9
20221210002508 29 306 5.0 10.0 0.00 0.00 0.00 64 1008.9
20221210002007 29 306 4.0 10.0 0.00 0.00 0.00 64 1008.9
20221210001508 30 288 7.0 10.0 0.00 0.00 0.00 63 1009.1
20221210001007 30 273 7.0 11.0 0.00 0.00 0.00 63 1009.0
20221210000038 30 248 12.0 12.0 0.00 0.00 0.00 62 1008.9
20221209234507 31 277 4.0 10.0 0.00 0.00 0.00 61 1009.4
20221209233508 31 240 9.0 12.0 0.00 0.00 0.00 61 1009.0
20221209233007 31 256 5.0 9.0 0.00 0.00 0.00 60 1008.7
20221209232507 31 249 9.0 11.0 0.00 0.00 0.00 61 1008.7
20221209232007 31 246 5.0 11.0 0.00 0.00 0.00 60 1008.6
20221209231507 31 242 6.0 10.0 0.00 0.00 0.00 61 1008.6
20221209231008 31 242 5.0 11.0 0.00 0.00 0.00 61 1008.6
20221209230507 31 248 7.0 11.0 0.00 0.00 0.00 60 1008.4
20221209225507 31 202 7.0 10.0 0.00 0.00 0.00 59 1007.8
20221209225006 31 298 4.0 9.0 0.00 0.00 0.00 59 1007.9
20221209224506 31 192 7.0 9.0 0.00 0.00 0.00 58 1007.9
20221209224006 31 246 4.0 9.0 0.00 0.00 0.00 58 1007.7
20221209223507 31 241 6.0 9.0 0.00 0.00 0.00 58 1007.7
20221209223006 32 230 6.0 8.0 0.00 0.00 0.00 57 1007.9
20221209222506 32 238 6.0 9.0 0.00 0.00 0.00 57 1007.9
20221209222006 32 263 7.0 9.0 0.00 0.00 0.00 57 1007.6
20221209221506 32 244 4.0 9.0 0.00 0.00 0.00 57 1007.4
20221209221007 32 271 3.0 9.0 0.00 0.00 0.00 57 1007.3
20221209220036 32 246 7.0 11.0 0.00 0.00 0.00 56 1007.3
20221209215506 32 236 6.0 13.0 0.00 0.00 0.00 56 1007.2
20221209215006 32 263 8.0 13.0 0.00 0.00 0.00 56 1007.2
20221209214036 33 240 4.0 12.0 0.00 0.00 0.00 55 1006.9
20221209213506 33 236 8.0 11.0 0.00 0.00 0.00 55 1006.8
20221209213006 33 227 7.0 8.0 0.00 0.00 0.00 56 1006.7
20221209212536 32 248 6.0 7.0 0.00 0.00 0.00 56 1006.7
20221209212005 32 236 5.0 7.0 0.00 0.00 0.00 56 1006.6
20221209211536 32 238 5.0 7.0 0.00 0.00 0.00 55 1006.8
20221209211005 32 254 3.0 9.0 0.00 0.00 0.00 55 1006.8
20221209210505 32 266 4.0 9.0 0.00 0.00 0.00 54 1006.8
20221209210005 32 226 5.0 9.0 0.00 0.00 0.00 54 1006.7
20221209205005 32 217 4.0 8.0 0.00 0.00 0.00 54 1006.4
20221209204506 32 219 5.0 9.0 0.00 0.00 0.00 54 1006.5
20221209204005 32 239 8.0 9.0 0.00 0.00 0.00 55 1006.5
20221209203505 32 223 8.0 10.0 0.00 0.00 0.00 55 1006.5
20221209203005 32 238 4.0 10.0 0.00 0.00 0.00 55 1006.5
20221209202505 31 239 6.0 8.0 0.00 0.00 0.00 55 1006.5
20221209202004 31 236 7.0 9.0 0.00 0.00 0.00 55 1006.5
20221209201534 31 222 5.0 9.0 0.00 0.00 0.00 55 1006.4
20221209201004 31 242 5.0 7.0 0.00 0.00 0.00 55 1006.4
20221209200504 31 232 4.0 5.0 0.00 0.00 0.00 55 1006.5
20221209200034 31 215 5.0 5.0 0.00 0.00 0.00 55 1006.5
20221209195534 31 204 4.0 5.0 0.00 0.00 0.00 54 1006.5
20221209195004 31 214 2.0 5.0 0.00 0.00 0.00 54 1006.6
20221209194004 32 217 4.0 6.0 0.00 0.00 0.00 54 1006.9
20221209193534 32 236 3.0 5.0 0.00 0.00 0.00 53 1007.0
20221209193004 32 231 5.0 5.0 0.00 0.00 0.00 54 1007.0
20221209192534 32 234 4.0 5.0 0.00 0.00 0.00 54 1007.1
20221209191034 31 211 2.0 5.0 0.00 0.00 0.00 55 1006.9
20221209190503 31 288 2.0 4.0 0.00 0.00 0.00 56 1006.9
20221209190033 31 288 2.0 4.0 0.00 0.00 0.00 56 1006.8
20221209185504 31 269 3.0 5.0 0.00 0.00 0.00 57 1006.8
20221209184534 30 300 4.0 8.0 0.00 0.00 0.00 57 1006.9
20221209184033 30 265 3.0 8.0 0.00 0.00 0.00 57 1006.8
20221209183533 30 286 4.0 8.0 0.00 0.00 0.00 61 1006.9
20221209183033 30 300 3.0 7.0 0.00 0.00 0.00 57 1006.9
20221209182532 30 317 5.0 9.0 0.00 0.00 0.00 57 1007.1
20221209182033 29 316 2.0 9.0 0.00 0.00 0.00 57 1006.8
20221209181532 29 284 6.0 9.0 0.00 0.00 0.00 58 1006.8
20221209181032 29 286 5.0 9.0 0.00 0.00 0.00 58 1006.8
20221209180533 29 286 5.0 9.0 0.00 0.00 0.00 57 1007.0
20221209180032 29 304 7.0 9.0 0.00 0.00 0.00 57 1006.9
20221209175503 29 289 5.0 10.0 0.00 0.00 0.00 58 1006.9
20221209175032 29 279 5.0 10.0 0.00 0.00 0.00 58 1006.9
20221209174532 29 284 6.0 9.0 0.00 0.00 0.00 57 1006.9
20221209173532 29 248 2.0 5.0 0.00 0.00 0.00 56 1007.1
20221209173032 29 274 3.0 9.0 0.00 0.00 0.00 56 1006.9
20221209172532 29 309 3.0 9.0 0.00 0.00 0.00 58 1007.0
20221209171532 28 297 0.0 4.0 0.00 0.00 0.00 59 1007.0
20221209171032 28 279 3.0 4.0 0.00 0.00 0.00 59 1007.0
20221209170531 28 317 3.0 6.0 0.00 0.00 0.00 59 1007.0
20221209170032 28 301 1.0 10.0 0.00 0.00 0.00 61 1007.0
20221209165502 27 315 3.0 10.0 0.00 0.00 0.00 61 1006.6
20221209165031 27 285 2.0 5.0 0.00 0.00 0.00 60 1006.6
20221209164531 27 288 3.0 4.0 0.00 0.00 0.00 56 1006.5
20221209164031 27 236 1.0 4.0 0.00 0.00 0.00 57 1006.4
20221209163532 26 237 3.0 4.0 0.00 0.00 0.00 58 1006.2
20221209163031 26 266 3.0 3.0 0.00 0.00 0.00 60 1006.4
20221209162531 26 266 2.0 4.0 0.00 0.00 0.00 59 1006.7
20221209162031 26 179 2.0 4.0 0.00 0.00 0.00 57 1006.3
20221209161531 26 195 3.0 4.0 0.00 0.00 0.00 59 1006.5
20221209161031 26 161 2.0 4.0 0.00 0.00 0.00 59 1006.7
20221209160531 26 161 0.0 4.0 0.00 0.00 0.00 60 1006.7
20221209160031 26 169 2.0 5.0 0.00 0.00 0.00 59 1006.6
20221209155531 26 237 3.0 5.0 0.00 0.00 0.00 58 1007.1
20221209155031 26 192 4.0 5.0 0.00 0.00 0.00 59 1007.2
20221209154531 26 192 2.0 6.0 0.00 0.00 0.00 59 1007.2
20221209154031 26 169 5.0 6.0 0.00 0.00 0.00 58 1007.1
20221209152030 26 207 5.0 15.0 0.00 0.00 0.00 59 1007.5
20221209151530 26 188 12.0 15.0 0.00 0.00 0.00 59 1007.4
20221209151030 26 196 6.0 12.0 0.00 0.00 0.00 59 1007.6
20221209150030 26 196 12.0 12.0 0.00 0.00 0.00 59 1007.7
20221209145030 26 170 4.0 16.0 0.00 0.00 0.00 59 1007.8
20221209144530 27 130 5.0 19.0 0.00 0.00 0.00 59 1008.0
20221209144030 27 200 11.0 21.0 0.00 0.00 0.00 58 1008.2
20221209143530 27 196 17.0 21.0 0.00 0.00 0.00 58 1008.3
20221209143029 27 186 9.0 19.0 0.00 0.00 0.00 58 1008.5
20221209142530 27 171 6.0 19.0 0.00 0.00 0.00 57 1008.7
20221209142030 27 177 6.0 18.0 0.00 0.00 0.00 56 1008.9
20221209141030 27 194 13.0 16.0 0.00 0.00 0.00 57 1009.1
20221209140530 26 194 10.0 18.0 0.00 0.00 0.00 57 1008.6
20221209140029 26 194 8.0 18.0 0.00 0.00 0.00 57 1008.7
20221209135529 26 198 6.0 17.0 0.00 0.00 0.00 59 1008.6
20221209135029 26 184 10.0 16.0 0.00 0.00 0.00 58 1008.6
20221209134530 26 160 11.0 13.0 0.00 0.00 0.00 58 1008.7
20221209134029 26 186 9.0 17.0 0.00 0.00 0.00 57 1008.8
20221209133529 26 198 11.0 17.0 0.00 0.00 0.00 58 1008.6
20221209133029 26 188 14.0 14.0 0.00 0.00 0.00 57 1008.6
20221209132530 26 195 6.0 11.0 0.00 0.00 0.00 56 1008.6
20221209131028 27 204 6.0 11.0 0.00 0.00 0.00 57 1009.3
20221209130529 27 181 3.0 12.0 0.00 0.00 0.00 57 1009.3
20221209130029 26 184 4.0 13.0 0.00 0.00 0.00 57 1008.8
20221209125529 26 194 6.0 15.0 0.00 0.00 0.00 56 1008.9
20221209125028 26 215 5.0 15.0 0.00 0.00 0.00 57 1008.9
20221209124528 27 203 5.0 18.0 0.00 0.00 0.00 57 1009.3
20221209124029 26 199 8.0 18.0 0.00 0.00 0.00 57 1009.0
20221209123029 26 198 9.0 21.0 0.00 0.00 0.00 57 1009.0
20221209122528 26 198 15.0 20.0 0.00 0.00 0.00 56 1009.2
20221209122029 27 200 13.0 20.0 0.00 0.00 0.00 56 1009.6
20221209121528 27 182 13.0 19.0 0.00 0.00 0.00 56 1009.7
20221209121028 27 202 15.0 19.0 0.00 0.00 0.00 56 1009.6
20221209120528 27 202 9.0 22.0 0.00 0.00 0.00 55 1009.7
20221209120028 27 198 13.0 26.0 0.00 0.00 0.00 55 1009.7
20221209115528 27 197 14.0 26.0 0.00 0.00 0.00 56 1010.1
20221209115028 27 203 16.0 20.0 0.00 0.00 0.00 55 1010.1
20221209114527 27 203 10.0 20.0 0.00 0.00 0.00 55 1010.1
20221209114027 27 198 12.0 20.0 0.00 0.00 0.00 55 1010.0
20221209113528 27 211 9.0 19.0 0.00 0.00 0.00 55 1010.2
20221209113028 27 207 12.0 18.0 0.00 0.00 0.00 54 1010.3
20221209112027 27 193 6.0 24.0 0.00 0.00 0.00 52 1010.4
20221209111527 27 180 14.0 24.0 0.00 0.00 0.00 51 1010.5
20221209110527 27 186 16.0 20.0 0.00 0.00 0.00 52 1010.8
20221209105527 26 213 13.0 18.0 0.00 0.00 0.00 54 1010.8
20221209105028 26 237 9.0 19.0 0.00 0.00 0.00 55 1010.9
20221209104527 26 209 15.0 19.0 0.00 0.00 0.00 55 1010.8
20221209104027 26 229 11.0 17.0 0.00 0.00 0.00 55 1010.8
20221209103027 26 197 10.0 26.0 0.00 0.00 0.00 55 1010.9
20221209102526 26 210 15.0 26.0 0.00 0.00 0.00 55 1010.9
20221209102027 26 209 10.0 22.0 0.00 0.00 0.00 56 1010.9
20221209101527 26 209 10.0 20.0 0.00 0.00 0.00 55 1010.9
20221209100526 27 216 9.0 23.0 0.00 0.00 0.00 54 1011.0
20221209095526 27 194 12.0 25.0 0.00 0.00 0.00 54 1011.6
20221209095026 26 195 16.0 24.0 0.00 0.00 0.00 54 1011.5
20221209094526 26 200 11.0 25.0 0.00 0.00 0.00 53 1011.5
20221209094026 26 188 15.0 25.0 0.00 0.00 0.00 53 1011.5
20221209093027 26 205 13.0 25.0 0.00 0.00 0.00 52 1011.7
20221209092526 26 202 13.0 23.0 0.00 0.00 0.00 51 1011.8
20221209092026 26 199 17.0 23.0 0.00 0.00 0.00 51 1011.7
20221209091525 26 192 14.0 20.0 0.00 0.00 0.00 51 1011.8
20221209091025 26 207 13.0 18.0 0.00 0.00 0.00 52 1011.8
20221209090525 25 204 16.0 19.0 0.00 0.00 0.00 52 1011.7
20221209090026 25 200 10.0 19.0 0.00 0.00 0.00 53 1011.9
20221209085525 25 204 13.0 16.0 0.00 0.00 0.00 54 1012.4
20221209085026 25 236 11.0 12.0 0.00 0.00 0.00 54 1012.4
20221209084025 25 176 4.0 17.0 0.00 0.00 0.00 54 1012.4
20221209082025 25 209 14.0 16.0 0.00 0.00 0.00 54 1012.6
20221209081525 25 191 9.0 12.0 0.00 0.00 0.00 53 1013.0
20221209081025 25 207 11.0 12.0 0.00 0.00 0.00 53 1013.1
20221209080525 26 203 8.0 12.0 0.00 0.00 0.00 53 1013.2
20221209080025 26 184 12.0 18.0 0.00 0.00 0.00 53 1013.1
20221209075525 26 194 6.0 18.0 0.00 0.00 0.00 53 1013.2
20221209075024 26 209 10.0 17.0 0.00 0.00 0.00 52 1013.3
20221209074024 26 199 13.0 19.0 0.00 0.00 0.00 52 1013.4
20221209073524 26 190 11.0 19.0 0.00 0.00 0.00 52 1013.4
20221209072524 26 234 6.0 19.0 0.00 0.00 0.00 51 1013.7
20221209071525 26 204 11.0 22.0 0.00 0.00 0.00 52 1013.5
20221209071024 26 189 16.0 18.0 0.00 0.00 0.00 53 1013.7
20221209070524 26 192 15.0 24.0 0.00 0.00 0.00 54 1013.9
20221209070025 26 217 7.0 24.0 0.00 0.00 0.00 54 1013.8
20221209065524 26 196 10.0 23.0 0.00 0.00 0.00 54 1013.6
20221209065024 26 205 12.0 23.0 0.00 0.00 0.00 54 1013.7
20221209064024 26 194 12.0 16.0 0.00 0.00 0.00 54 1013.7
20221209063524 26 190 10.0 17.0 0.00 0.00 0.00 54 1013.7
20221209063024 26 182 14.0 17.0 0.00 0.00 0.00 54 1013.9
20221209062024 26 196 17.0 20.0 0.00 0.00 0.00 54 1014.2
20221209061524 26 192 11.0 20.0 0.00 0.00 0.00 54 1014.2
20221209060526 26 196 12.0 16.0 0.00 0.00 0.00 54 1014.2